Regional Weather Roundup
Issued by NWS Newport/Morehead, NC

Current Version | Previous Version | Graphics & Text | Print | Product List | Glossary Off
Versions: 1 2 3 4 5 6 7 8 9 10 11 12 13 14 15 16 17 18 19 20 21 22 23 24 25 26 27 28 29 30 31 32 33 34 35 36 37 38 39 40 41 42 43 44 45 46 47 48 49 50

000
ASUS42 KMHX 031113
RWRMHX
WEATHER ROUNDUP FOR EASTERN NORTH CAROLINA
NATIONAL WEATHER SERVICE NEWPORT/MOREHEAD CITY NC
600 AM EST TUE MAR 03 2015

NOTE: "FAIR" INDICATES FEW OR NO CLOUDS BELOW 12,000 FEET
WITH NO SIGNIFICANT WEATHER AND/OR OBSTRUCTIONS TO VISIBILITY

NCZ015>017-031-032-045>047-102-103-031200-
NORTH COAST

CITY           SKY/WX    TMP DP  RH WIND       PRES   REMARKS
EDENTON        PTCLDY    30  26  86 CALM      30.41R
ELIZABETH CITY CLEAR     33  24  69 NE8       30.40S
KITTY HAWK     MOSUNNY   36  29  78 N7        30.36S
MANTEO         CLEAR     36  28  75 NE8       30.39R

$$

NCZ045>047-081-094-103-104-031200-
CENTRAL COAST

CITY           SKY/WX    TMP DP  RH WIND       PRES   REMARKS
FRISCO         PTCLDY    38  31  76 VRB6      30.36S
SWANQUARTER      N/A     36 N/A N/A N7        30.36S

$$

NCZ095-097-098-100-101-031200-
SOUTHERN COAST

CITY           SKY/WX    TMP DP  RH WIND       PRES   REMARKS
BEAUFORT       CLOUDY    39  28  64 NE10G20   30.35F
CEDAR ISLAND     N/A     39 N/A N/A VRB14     30.41S
JACKSONVILLE   CLOUDY    41  22  46 NE12      30.35S
PINEY ISLAND     N/A    N/A N/A N/A MISG      30.37R
WILMINGTON     CLOUDY    44  22  41 NE15      30.34R


$$

NCZ011>013-027>030-043-044-078>080-089-090>093-098-031200-
COASTAL PLAIN

CITY           SKY/WX    TMP DP  RH WIND       PRES   REMARKS
AHOSKIE        PTCLDY    29  21  70 CALM      30.43S
CLINTON        CLOUDY    41  26  55 NE5       30.37R
ELIZABETHTOWN  LGT RAIN  42  24  50 E5        30.35R
GOLDSBORO      CLOUDY    38  31  75 E8        30.37R
GREENVILLE     CLOUDY    36  27  69 E6        30.41R
HAVELOCK       CLOUDY    40  23  50 NE10      30.37S
KENANSVILLE    CLOUDY    39  23  52 E3        30.38R
KINSTON        NOT AVBL
NEW BERN       CLOUDY    38  23  55 NE12      30.38S
RICHLANDS      CLOUDY    39  23  52 NE12      30.35F
ROCKY MOUNT    CLOUDY    36  23  59 E3        30.39R
WASHINGTON     CLOUDY    33  26  73 NE5       30.40S
WHITEVILLE     CLOUDY    42  25  51 NE9       30.33R

$$

AMZ130-135-150-152-154-156-158-170-250-252-270-ANZ085-086-088-633-658-670-031200-
MARINE OBSERVATIONS

STATION/POSITION TIME  TEMP    WIND        PRES    WAVE   SWELL
                       AIR SEA DIR/SP/G            HT/PER HT/PER
                 (UTC) (F)     (DEG/KT/KT) (MB)    (FT/S) (FT/S)
CHESAPEAKE LIGHT 1000   34      40/ 13/ 14 1030.5
64 E VA BEACH    1050   43 62   50/ 12/ 16 1028.1    5/ 6   3/ 6
DUCK             1000      35   20/ 15/ 17 1028.2
2 E DUCK         1011      34                N/A     4/ 5
10 NE DUCK       1022      37                N/A     5/ 6
OREGON INLET     1000      40  360/  9/ 12 1028.5
HATTERAS CG      1000      43   10/ 13/ 16 1028.7
CAPE LOOKOUT     1100   42      30/ 19/ 22 1027.4
BEAUFORT LAB     1000      44   30/  9/ 13 1026.8
27 SE WRIGHTSVLE NOT AVBL
5 SE WRIGHTSVLE  NOT AVBL
225 S CAPE HAT   1050   65 73   50/ 19/ 23 1025.1    7/ 6   2/15
41 SE CHARLESTON 1050   67 68   80/ 12/ 16 1023.5    4/ 9   3/ 9

$$


USA.gov is the U.S. government's official web portal to all federal, state and local government web resources and services.